This is the latest recevied weather packets stored in our database for station/object N0OQA. If no packets are shown the sender has not sent any weather packets the latest 10 day(s).
| Time | Temp. | Humidity | Pressure | Rain* | Wind** | Luminosity | Snow |
|---|---|---|---|---|---|---|---|
| 1788005485 | 19.44° C | 100% | 1015.7 hPa | 7.11 mm | - | - | - |
| 1788005185 | 19.44° C | 100% | 1016 hPa | 6.1 mm | - | - | - |
| 1788004884 | 19.44° C | 100% | 1016.1 hPa | 5.84 mm | - | - | - |
| 1788004584 | 19.44° C | 100% | 1016.1 hPa | 5.33 mm | - | - | - |
| 1788004284 | 19.44° C | 100% | 1016.3 hPa | 5.33 mm | - | - | - |
| 1788003983 | 19.44° C | 100% | 1015.8 hPa | 5.33 mm | - | - | - |
| 1788003683 | 19.44° C | 100% | 1016 hPa | 5.33 mm | - | - | - |
| 1788003383 | 19.44° C | 100% | 1016 hPa | 4.83 mm | - | - | - |
| 1788003083 | 19.44° C | 100% | 1015.9 hPa | 4.32 mm | - | - | - |
| 1788002182 | 19.44° C | 100% | 1015.7 hPa | 4.06 mm | - | - | - |
| 1788001880 | 19.44° C | 100% | 1015.8 hPa | 4.06 mm | - | - | - |
| 1788001579 | 19.44° C | 100% | 1015.7 hPa | 3.81 mm | - | - | - |
| 1788001279 | 19.44° C | 100% | 1015.6 hPa | 3.81 mm | - | - | - |
| 1788000679 | 19.44° C | 100% | 1015.9 hPa | 3.3 mm | - | - | - |
| 1788000378 | 19.44° C | 100% | 1015.8 hPa | 3.3 mm | - | - | - |
| 1788000078 | 19.44° C | 100% | 1015.9 hPa | 3.3 mm | - | - | - |
| 1787999775 | 19.44° C | 99% | 1016 hPa | 3.3 mm | - | - | - |
| 1787999475 | 19.44° C | 99% | 1015.9 hPa | 3.05 mm | - | - | - |
| 1787998874 | 19.44° C | 99% | 1015.9 hPa | 2.79 mm | - | - | - |
| 1787998573 | 19.44° C | 99% | 1016 hPa | 2.79 mm | - | - | - |
| 1787997972 | 19.44° C | 99% | 1015.8 hPa | 2.79 mm | - | - | - |
| 1787997672 | 19.44° C | 99% | 1015.9 hPa | 2.79 mm | - | - | - |
| 1787997371 | 19.44° C | 98% | 1015.9 hPa | 2.79 mm | - | - | - |
| 1787997071 | 19.44° C | 98% | 1016.1 hPa | 2.79 mm | - | - | - |
| 1787996770 | 19.44° C | 98% | 1016.1 hPa | 2.79 mm | - | - | - |
* Rain since midnight (hover to see other rain measurements)
** Current wind speed in m/s (hover to see current wind gust speed)